Weather in Dzhogino

Russia / Irkutsk Oblast     56°38′54″N   98°09′47″E
temp.,
°C
wind,
m/s
gust,
m/s
humid.,
%
clouds,
%
prec.,
mm/h
press.,
hPa
HPBL,
m
21 april, wed
wed2123:00−8ssw299227 0.1 1019250
02:00−8wsw41186100 0.1 1020680
05:00−7wsw51092100 0.3 10211005
08:00−7wsw51090100 0.8 1022916
11:00−4w5867100 0.5 10231733
14:00−2wnw5661100 0.7 10241836
17:00−2wnw3564100 0.3 10251144
20:00−3wnw127984 0.4 102746
22 april, thu
thu2223:00−8n11958 0.0 103010
02:00−10ene119712 0.0 103110
05:00−10e119752 0.0 103310
08:00−5ene118623 0.0 1035121
11:000ene235996 0.0 10361252
14:00+2ne2250100 0.1 10371538
17:00+3ne3349100 0.1 10371508
20:00−1ne117811 0.2 104031
23 april, fri
fri2323:00−5ene21905 0.0 104324
02:00−6ene21905 0.0 104417
05:00−7ene11925 0.0 104514
08:00−2e12670 0.0 104688
11:00+3e12464 0.0 10461260
14:00+5ene23435 0.0 10441494
17:00+6ene23435 0.0 10431531
20:00+1ne26755 0.0 104394
24 april, sat
sat2423:00−2ene28845 0.0 1044123
02:00−3ene26865 0.0 104298
05:00−2ene310755 0.0 1041193
08:00+1ene4116436 0.0 1039326
11:00+5e5847100 0.0 1036965
14:00+7ene5740100 0.0 10331357
17:00+6ene4753100 0.0 10301170
20:00+3ne2778100 0.0 1030152
25 april, sun
sun2523:00+1nne2690100 0.0 1029155
02:00+1ne3895100 0.1 1027249
05:000nne2699100 0.2 1026250
08:00+1n2689100 0.4 1026321
11:00+2n3590100 0.1 1025498
14:00+2nw3797100 1.0 1024339
17:00+2wnw2699100 1.2 1024328
20:00+1nw2799100 2.4 1024497